Weather History for Macomb, IL

Change the Weather History Date:

Thursday, January 3, 2013

  Actual Average (KBRL) Record (KBRL)
Temperature  
Mean Temperature 20 °F 26 °F  
Max Temperature 32 °F 34 °F 62 °F (1998)
Min Temperature 8 °F 18 °F -16 °F (1919)
Degree Days  
Heating Degree Days 45 39  
Month to date heating degree days 117  
Since 1 July heating degree days 2303  
Cooling Degree Days 0 0  
Month to date cooling degree days 0  
Year to date cooling degree days 0  
Moisture  
Dew Point 20 °F    
Average Humidity 85    
Maximum Humidity 91    
Minimum Humidity 74    
Precipitation  
Precipitation 0.00 in 0.04 in 0.71 in (2005)
Month to date precipitation 0.13  
Year to date precipitation 0.13  
Sea Level Pressure  
Sea Level Pressure 30.29 in    
Wind  
Wind Speed 10 mph (West)    
Max Wind Speed 18 mph    
Max Gust Speed 32 mph    
Visibility 10 miles    
Events      
T = Trace of Precipitation, MM = Missing Value Source: NWS Daily Summary

Daily Weather History Graph

Daily Weather History Graph

Search for Another Location

Airport:

Trip Planner

Search our weather history database for the weather conditions in past years. The results will help you decide how hot, cold, wet, or windy it might be!

Date:

Astronomy

Jan. 03, 2013 Rise Set
Actual Time 7:26 AM CST 4:48 PM CST
Civil Twilight 6:55 AM CST 5:19 PM CST
Nautical Twilight 6:21 AM CST 5:53 PM CST
Astronomical Twilight 5:48 AM CST 6:26 PM CST
Moon 11:25 PM CST (1/3) 10:36 AM CST (1/3)
Length of Visible Light 10h 23m
Length of Day
9h 22m
Waning Gibbous, 65% of the Moon is Illuminated
Jan 3
Waning Gibbous
Jan 4
Last Quarter
Jan 11
New
Jan 18
First Quarter
Jan 26
Full

Hourly Weather History & Observations

Time (CST) Temp. Windchill Dew Point Humidity Pressure Visibility Wind Dir Wind Speed Gust Speed Precip Events Conditions
12:15 AM 26.8 °F 16.5 °F 21.4 °F 80% 30.17 in 10.0 mi West 11.5 mph - N/A   Overcast
12:35 AM 27.0 °F 17.3 °F 22.1 °F 82% 30.17 in 10.0 mi West 10.4 mph - N/A   Overcast
12:55 AM 27.0 °F 18.0 °F 22.1 °F 82% 30.17 in 10.0 mi West 9.2 mph - N/A   Overcast
1:15 AM 26.6 °F 18.2 °F 22.6 °F 85% 30.17 in 10.0 mi WSW 8.1 mph - N/A   Overcast
1:35 AM 26.6 °F 18.2 °F 23.0 °F 86% 30.17 in 10.0 mi WSW 8.1 mph - N/A   Overcast
1:55 AM 23.9 °F 13.5 °F 20.5 °F 87% 30.18 in 10.0 mi WSW 10.4 mph - N/A   Scattered Clouds
2:15 AM 23.7 °F 13.3 °F 20.7 °F 88% 30.19 in 10.0 mi WSW 10.4 mph - N/A   Scattered Clouds
2:35 AM 25.5 °F 15.5 °F 22.3 °F 88% 30.20 in 10.0 mi WSW 10.4 mph - N/A   Overcast
2:55 AM 26.2 °F 15.8 °F 22.8 °F 87% 30.20 in 10.0 mi WSW 11.5 mph - N/A   Overcast
3:15 AM 25.5 °F 14.9 °F 22.1 °F 87% 30.20 in 10.0 mi West 11.5 mph - N/A   Mostly Cloudy
3:35 AM 25.2 °F 15.1 °F 21.9 °F 87% 30.20 in 10.0 mi West 10.4 mph - N/A   Mostly Cloudy
3:55 AM 25.7 °F 15.7 °F 22.8 °F 89% 30.20 in 10.0 mi West 10.4 mph - N/A   Overcast
4:15 AM 25.7 °F 15.1 °F 22.8 °F 89% 30.20 in 10.0 mi West 11.5 mph - N/A   Overcast
4:35 AM 25.7 °F 15.7 °F 23.0 °F 89% 30.20 in 10.0 mi West 10.4 mph - N/A   Overcast
4:55 AM 26.2 °F 15.8 °F 23.5 °F 90% 30.21 in 10.0 mi West 11.5 mph - N/A   Overcast
5:15 AM 26.6 °F 16.2 °F 23.9 °F 90% 30.21 in 10.0 mi West 11.5 mph - N/A   Overcast
5:35 AM 26.4 °F 18.0 °F 23.9 °F 90% 30.22 in 10.0 mi West 8.1 mph - N/A   Overcast
5:55 AM 27.0 °F 17.3 °F 24.3 °F 90% 30.22 in 10.0 mi West 10.4 mph - N/A   Overcast
6:15 AM 27.3 °F 17.7 °F 24.4 °F 89% 30.23 in 10.0 mi West 10.4 mph - N/A   Overcast
6:35 AM 28.4 °F 19.7 °F 24.8 °F 86% 30.23 in 10.0 mi West 9.2 mph - N/A   Overcast
6:55 AM 27.3 °F 17.7 °F 24.8 °F 90% 30.24 in 10.0 mi West 10.4 mph - N/A   Overcast
7:15 AM 27.5 °F 18.0 °F 25.0 °F 90% 30.24 in 10.0 mi West 10.4 mph - N/A   Overcast
7:35 AM 27.5 °F 18.6 °F 25.2 °F 91% 30.24 in 10.0 mi West 9.2 mph - N/A   Overcast
7:55 AM 28.0 °F 19.3 °F 25.3 °F 90% 30.25 in 10.0 mi West 9.2 mph - N/A   Overcast
8:15 AM 28.2 °F 19.5 °F 25.3 °F 89% 30.25 in 10.0 mi West 9.2 mph - N/A   Overcast
8:35 AM 28.4 °F 19.7 °F 25.7 °F 90% 30.26 in 10.0 mi West 9.2 mph - N/A   Overcast
8:55 AM 29.1 °F 21.3 °F 26.1 °F 88% 30.26 in 10.0 mi West 8.1 mph - N/A   Overcast
9:15 AM 29.7 °F 21.3 °F 26.6 °F 88% 30.27 in 10.0 mi West 9.2 mph - N/A   Overcast
9:35 AM 30.2 °F 21.9 °F 27.0 °F 88% 30.28 in 10.0 mi West 9.2 mph - N/A   Overcast
9:55 AM 30.7 °F 22.0 °F 27.3 °F 87% 30.29 in 10.0 mi West 10.4 mph - N/A   Overcast
10:15 AM 31.1 °F 21.9 °F 27.5 °F 87% 30.30 in 10.0 mi West 11.5 mph - N/A   Overcast
10:35 AM 31.8 °F 23.3 °F 28.0 °F 86% 30.30 in 10.0 mi West 10.4 mph - N/A   Overcast
10:55 AM 32.0 °F 23.0 °F 28.2 °F 86% 30.30 in 10.0 mi West 11.5 mph - N/A   Overcast
11:15 AM 32.0 °F 21.6 °F 27.5 °F 83% 30.30 in 10.0 mi WNW 15.0 mph - N/A   Overcast
11:35 AM 32.0 °F 21.6 °F 27.7 °F 84% 30.30 in 10.0 mi NW 15.0 mph - N/A   Overcast
11:55 AM 31.1 °F 21.4 °F 26.6 °F 83% 30.30 in 10.0 mi NW 12.7 mph - N/A   Overcast
12:15 PM 29.1 °F 16.7 °F 25.5 °F 86% 30.30 in 10.0 mi NNW 18.4 mph - N/A   Overcast
12:35 PM 28.2 °F 17.7 °F 24.4 °F 86% 30.29 in 10.0 mi NW 12.7 mph 32.2 mph N/A   Overcast
12:55 PM 28.4 °F 19.1 °F 24.8 °F 86% 30.29 in 10.0 mi WNW 10.4 mph - N/A   Overcast
1:15 PM 28.6 °F 17.2 °F 24.8 °F 86% 30.29 in 10.0 mi WNW 15.0 mph - N/A   Overcast
1:35 PM 28.4 °F 18.5 °F 23.9 °F 83% 30.29 in 10.0 mi WNW 11.5 mph - N/A   Overcast
1:55 PM 28.8 °F 19.0 °F 23.9 °F 82% 30.30 in 10.0 mi WNW 11.5 mph - N/A   Overcast
2:15 PM 28.8 °F 17.9 °F 23.0 °F 79% 30.30 in 10.0 mi WNW 13.8 mph - N/A   Overcast
2:35 PM 28.9 °F 18.6 °F 22.8 °F 78% 30.30 in 10.0 mi WNW 12.7 mph - N/A   Overcast
2:55 PM 28.4 °F 17.0 °F 21.2 °F 74% 30.32 in 10.0 mi WNW 15.0 mph - N/A   Scattered Clouds
3:15 PM 28.2 °F 16.8 °F 21.2 °F 75% 30.32 in 10.0 mi WNW 15.0 mph - N/A   Scattered Clouds
3:35 PM 27.5 °F 15.9 °F 21.0 °F 77% 30.32 in 10.0 mi WNW 15.0 mph - N/A   Clear
3:55 PM 26.6 °F 13.8 °F 21.2 °F 80% 30.33 in 10.0 mi NW 17.3 mph - N/A   Clear
4:15 PM 26.1 °F 15.6 °F 20.1 °F 78% 30.33 in 10.0 mi NW 11.5 mph - N/A   Scattered Clouds
4:35 PM 25.5 °F 14.9 °F 19.9 °F 79% 30.33 in 10.0 mi WNW 11.5 mph - N/A   Overcast
4:55 PM 23.4 °F 15.2 °F 18.7 °F 82% 30.34 in 10.0 mi WNW 6.9 mph - N/A   Mostly Cloudy
5:15 PM 21.7 °F 12.3 °F 17.4 °F 83% 30.34 in 10.0 mi WNW 8.1 mph - N/A   Scattered Clouds
5:35 PM 20.5 °F 11.7 °F 17.1 °F 87% 30.35 in 10.0 mi WNW 6.9 mph - N/A   Mostly Cloudy
5:55 PM 21.2 °F 13.6 °F 17.6 °F 86% 30.35 in 10.0 mi WNW 5.8 mph - N/A   Overcast
6:15 PM 23.0 °F 12.4 °F 17.1 °F 78% 30.36 in 10.0 mi NW 10.4 mph - N/A   Scattered Clouds
6:35 PM 19.9 °F 10.1 °F 14.5 °F 80% 30.36 in 10.0 mi WNW 8.1 mph - N/A   Clear
6:55 PM 17.8 °F 8.5 °F 13.3 °F 83% 30.37 in 10.0 mi NW 6.9 mph - N/A   Clear
7:15 PM 16.0 °F 8.8 °F 12.0 °F 84% 30.37 in 10.0 mi NW 4.6 mph - N/A   Clear
7:35 PM 16.9 °F 8.5 °F 12.4 °F 82% 30.38 in 10.0 mi WNW 5.8 mph - N/A   Clear
7:55 PM 14.2 °F 3.1 °F 9.7 °F 82% 30.38 in 10.0 mi NW 8.1 mph - N/A   Clear
8:15 PM 13.3 °F 1.1 °F 9.9 °F 86% 30.38 in 10.0 mi NW 9.2 mph - N/A   Clear
8:35 PM 13.8 °F 4.9 °F 9.9 °F 84% 30.38 in 10.0 mi WNW 5.8 mph - N/A   Clear
8:55 PM 12.2 °F 1.7 °F 8.6 °F 85% 30.39 in 10.0 mi West 6.9 mph - N/A   Clear
9:15 PM 10.9 °F -1.8 °F 7.5 °F 86% 30.39 in 10.0 mi WNW 9.2 mph - N/A   Clear
9:35 PM 15.4 °F 3.0 °F 10.4 °F 80% 30.39 in 10.0 mi NW 10.4 mph - N/A   Clear
9:55 PM 13.8 °F 1.8 °F 9.1 °F 82% 30.39 in 10.0 mi WNW 9.2 mph - N/A   Clear
10:15 PM 12.2 °F 0.7 °F 8.2 °F 84% 30.39 in 10.0 mi WNW 8.1 mph - N/A   Clear
10:35 PM 10.8 °F 1.2 °F 7.3 °F 86% 30.39 in 10.0 mi WNW 5.8 mph - N/A   Clear
10:55 PM 11.7 °F 1.1 °F 8.1 °F 85% 30.38 in 10.0 mi West 6.9 mph - N/A   Clear
11:15 PM 8.6 °F -3.7 °F 5.0 °F 85% 30.37 in 10.0 mi WSW 8.1 mph - N/A   Clear
11:35 PM 11.3 °F 0.7 °F 7.5 °F 85% 30.38 in 10.0 mi West 6.9 mph - N/A   Clear
11:55 PM 10.4 °F -1.5 °F 6.6 °F 85% 30.37 in 10.0 mi West 8.1 mph - N/A   Clear